Detroit, MI

7:55 PM EDT on October 21, 2017 (GMT -0400)
Detroit City

Weather History for KDET - January, 2014

Change the Weather History Date:

Thursday, January 2, 2014

  Actual Average Record
Temperature  
Mean Temperature 12 °F -  
Max Temperature 17 °F 31 °F 57 °F (2000)
Min Temperature 6 °F 20 °F -1 °F (1979)
Degree Days  
Heating Degree Days 53    
Moisture  
Dew Point 7 °F    
Average Humidity 74    
Maximum Humidity 80    
Minimum Humidity 63    
Precipitation  
Precipitation 0.02 in - - ()
Sea Level Pressure  
Sea Level Pressure 30.14 in    
Wind  
Wind Speed 14 mph (NNE)    
Max Wind Speed 20 mph    
Max Gust Speed 30 mph    
Visibility 3 miles    
Events Snow    
Averages and records for this station are not official NWS values.
T = Trace of Precipitation, MM = Missing Value Source: NWS Daily Summary

Daily Weather History Graph

Daily Weather History Graph

Search for Another Location

Airport or City:

Trip Planner

Search our weather history database for the weather conditions in past years. The results will help you decide how hot, cold, wet, or windy it might be!

Date:

Astronomy

Jan. 02, 2014 Rise Set
Actual Time 8:01 AM EST 5:10 PM EST
Civil Twilight 7:29 AM EST 5:42 PM EST
Nautical Twilight 6:54 AM EST 6:18 PM EST
Astronomical Twilight 6:20 AM EST 6:52 PM EST
Moon 8:39 AM EST (1/2) 7:09 PM EST (1/2)
Length of Visible Light 10h 13m
Length of Day
9h 09m
New Moon, 2% of the Moon is Illuminated
Jan 2
New Moon
Jan 7
First Quarter
Jan 15
Full
Jan 24
Last Quarter
Jan 30
New

Hourly Weather History & Observations

Time (EST) Temp. Windchill Dew Point Humidity Pressure Visibility Wind Dir Wind Speed Gust Speed Precip Events Conditions
12:04 AM 17.6 °F 3.7 °F 10.4 °F 73% 30.21 in 2.0 mi NE 13.8 mph 19.6 mph 0.00 in Snow Light Snow
12:19 AM 15.8 °F 2.1 °F 10.4 °F 79% 30.21 in 3.0 mi NE 12.7 mph - 0.00 in Snow Light Snow
12:53 AM 15.1 °F 1.8 °F 9.0 °F 77% 30.24 in 3.0 mi NE 11.5 mph - 0.00 in Snow Light Snow
1:06 AM 15.8 °F 2.1 °F 8.6 °F 73% 30.20 in 2.5 mi NE 12.7 mph - 0.01 in Snow Light Snow
1:53 AM 14.0 °F 0.5 °F 8.1 °F 77% 30.23 in 3.0 mi NNE 11.5 mph - 0.01 in Snow Light Snow
2:11 AM 12.2 °F -1.8 °F 6.8 °F 79% 30.19 in 4.0 mi NE 11.5 mph - 0.00 in Snow Light Snow
2:53 AM 12.9 °F -1.6 °F 7.0 °F 77% 30.23 in 4.0 mi NE 12.7 mph - 0.00 in Snow Light Snow
3:34 AM 12.2 °F -1.0 °F 6.8 °F 79% 30.18 in 2.5 mi NE 10.4 mph 19.6 mph 0.00 in Snow Light Snow
3:53 AM 12.0 °F -4.0 °F 6.1 °F 77% 30.21 in 2.5 mi NE 15.0 mph 21.9 mph 0.00 in Snow Light Snow
4:15 AM 12.2 °F -2.5 °F 6.8 °F 79% 30.17 in 1.8 mi NE 12.7 mph - 0.00 in Snow Light Snow
4:22 AM 12.2 °F -1.0 °F 6.8 °F 79% 30.17 in 1.5 mi NE 10.4 mph - 0.00 in Snow Light Snow
4:33 AM 12.2 °F -1.8 °F 6.8 °F 79% 30.16 in 2.0 mi NE 11.5 mph - 0.00 in Snow Light Snow
4:43 AM 12.2 °F -3.1 °F 6.8 °F 79% 30.16 in 2.5 mi NE 13.8 mph - 0.00 in Snow Light Snow
4:51 AM 12.2 °F -1.0 °F 6.8 °F 79% 30.15 in 4.0 mi NE 10.4 mph 18.4 mph 0.00 in Snow Light Snow
4:53 AM 12.0 °F -2.0 °F 6.1 °F 77% 30.19 in 4.0 mi NE 11.5 mph - 0.00 in Snow Light Snow
5:23 AM 12.2 °F -3.1 °F 6.8 °F 79% 30.14 in 2.5 mi NE 13.8 mph - 0.00 in Snow Light Snow
5:33 AM 12.2 °F -3.7 °F 6.8 °F 79% 30.14 in 1.8 mi NE 15.0 mph 20.7 mph 0.00 in Snow Light Snow
5:41 AM 12.2 °F -3.7 °F 6.8 °F 79% 30.14 in 2.0 mi NE 15.0 mph 21.9 mph 0.00 in Snow Light Snow
5:53 AM 12.0 °F -2.7 °F 6.1 °F 77% 30.18 in 2.5 mi NE 12.7 mph 23.0 mph 0.00 in Snow Light Snow
6:53 AM 12.9 °F -3.4 °F 7.0 °F 77% 30.16 in 2.5 mi NNE 16.1 mph 24.2 mph 0.00 in Snow Light Snow
7:04 AM 12.2 °F -3.7 °F 6.8 °F 79% 30.12 in 3.0 mi NE 15.0 mph 23.0 mph 0.00 in Snow Light Snow
7:18 AM 12.2 °F -2.5 °F 6.8 °F 79% 30.12 in 2.0 mi NE 12.7 mph 21.9 mph 0.00 in Snow Light Snow
7:28 AM 12.2 °F -2.5 °F 6.8 °F 79% 30.11 in 1.8 mi NE 12.7 mph 20.7 mph 0.00 in Snow Light Snow
7:46 AM 12.2 °F -3.7 °F 6.8 °F 79% 30.10 in 2.0 mi NE 15.0 mph 25.3 mph 0.00 in Snow Light Snow
7:53 AM 12.9 °F -2.8 °F 7.0 °F 77% 30.14 in 2.0 mi NE 15.0 mph 20.7 mph 0.00 in Snow Light Snow
8:08 AM 14.0 °F -1.4 °F 8.6 °F 79% 30.10 in 1.8 mi NE 15.0 mph 21.9 mph 0.00 in Snow Light Snow
8:37 AM 14.0 °F 0.5 °F 8.6 °F 79% 30.11 in 0.8 mi NE 11.5 mph - 0.00 in Snow Light Snow
8:53 AM 14.0 °F -1.4 °F 8.1 °F 77% 30.14 in 0.8 mi NE 15.0 mph 25.3 mph 0.00 in Snow Light Snow
9:34 AM 14.0 °F -3.0 °F 8.6 °F 79% 30.11 in 1.0 mi NE 18.4 mph 23.0 mph 0.00 in Snow Light Snow
9:53 AM 14.0 °F -2.0 °F 7.0 °F 74% 30.15 in 1.0 mi NE 16.1 mph 25.3 mph 0.00 in Snow Light Snow
10:26 AM 14.0 °F -0.8 °F 8.6 °F 79% 30.11 in 0.8 mi NE 13.8 mph 20.7 mph 0.00 in Snow Light Snow
10:35 AM 14.0 °F -0.2 °F 8.6 °F 79% 30.11 in 1.0 mi NE 12.7 mph 21.9 mph 0.01 in Snow Light Snow
10:53 AM 15.1 °F 0.5 °F 8.1 °F 74% 30.15 in 1.5 mi NNE 13.8 mph 19.6 mph 0.01 in Snow Light Snow
11:53 AM 15.1 °F 0.5 °F 8.1 °F 74% 30.12 in 1.2 mi NE 13.8 mph 18.4 mph 0.00 in Snow Light Snow
12:07 PM 15.8 °F 3.4 °F 8.6 °F 73% 30.08 in 0.8 mi NE 10.4 mph 19.6 mph 0.00 in Snow Light Snow
12:27 PM 15.8 °F 0.3 °F 8.6 °F 73% 30.08 in 1.2 mi NNE 16.1 mph 24.2 mph 0.00 in Snow Light Snow
12:39 PM 15.8 °F 0.3 °F 6.8 °F 68% 30.07 in 2.0 mi NNE 16.1 mph 23.0 mph 0.00 in Snow Light Snow
12:53 PM 15.1 °F -0.1 °F 7.0 °F 70% 30.11 in 2.5 mi North 15.0 mph 25.3 mph 0.00 in Snow Light Snow
1:04 PM 15.8 °F -1.1 °F 6.8 °F 68% 30.07 in 2.5 mi NNE 19.6 mph 25.3 mph 0.00 in Snow Light Snow
1:53 PM 16.0 °F 0.6 °F 8.1 °F 71% 30.09 in 1.8 mi North 16.1 mph 24.2 mph 0.00 in Snow Light Snow
2:09 PM 15.8 °F 0.3 °F 6.8 °F 68% 30.05 in 2.5 mi NNE 16.1 mph 27.6 mph 0.00 in Snow Light Snow
2:17 PM 15.8 °F 1.4 °F 6.8 °F 68% 30.05 in 4.0 mi NNE 13.8 mph 25.3 mph 0.00 in Snow Light Snow
2:45 PM 15.8 °F 0.3 °F 6.8 °F 68% 30.05 in 8.0 mi North 16.1 mph 26.5 mph 0.00 in   Overcast
2:53 PM 16.0 °F -0.4 °F 6.1 °F 65% 30.09 in 7.0 mi NNE 18.4 mph 29.9 mph 0.00 in   Overcast
3:53 PM 15.1 °F -1.6 °F 6.1 °F 68% 30.10 in 6.0 mi North 18.4 mph 25.3 mph 0.00 in   Haze
4:53 PM 15.1 °F -1.1 °F 6.1 °F 68% 30.12 in 6.0 mi North 17.3 mph 27.6 mph 0.00 in   Haze
5:39 PM 15.8 °F 2.7 °F 8.6 °F 73% 30.10 in 2.5 mi North 11.5 mph - 0.00 in Snow Light Snow
5:53 PM 14.0 °F -1.4 °F 9.0 °F 80% 30.14 in 1.2 mi North 15.0 mph - 0.00 in Snow Light Snow
6:06 PM 14.0 °F -2.5 °F 8.6 °F 79% 30.11 in 2.0 mi North 17.3 mph 25.3 mph 0.00 in Snow Light Snow
6:19 PM 14.0 °F -2.5 °F 6.8 °F 73% 30.12 in 2.5 mi North 17.3 mph 25.3 mph 0.00 in Snow Light Snow
6:28 PM 14.0 °F -3.4 °F 6.8 °F 73% 30.12 in 4.0 mi North 19.6 mph 25.3 mph 0.00 in Snow Light Snow
6:53 PM 14.0 °F -2.5 °F 6.1 °F 71% 30.17 in 7.0 mi North 17.3 mph 28.8 mph 0.00 in   Overcast
7:53 PM 12.9 °F -3.9 °F 3.9 °F 67% 30.19 in 6.0 mi North 17.3 mph 27.6 mph 0.00 in Snow Light Snow
8:53 PM 12.9 °F -3.9 °F 3.0 °F 65% 30.22 in 7.0 mi North 17.3 mph 24.2 mph 0.00 in   Overcast
9:53 PM 9.0 °F -6.6 °F -0.0 °F 67% 30.20 in 10.0 mi NNW 12.7 mph - 0.00 in   Partly Cloudy
10:53 PM 7.0 °F -9.8 °F -2.9 °F 64% 30.24 in 10.0 mi NNW 13.8 mph 24.2 mph N/A   Mostly Cloudy
11:53 PM 6.1 °F -8.7 °F -4.0 °F 63% 30.26 in 10.0 mi NNW 10.4 mph 23.0 mph N/A   Clear